Regional Weather Roundup
Issued by NWS

Home | Current Version | Previous Version | Text Only | Print | Product List | Glossary On
Versions: 1 2 3 4 5 6 7 8 9 10 11 12 13 14 15 16 17 18 19 20 21 22 23 24 25 26 27 28 29 30 31 32 33 34 35 36 37 38 39 40 41 42 43 44 45 46 47 48 49 50
000
ASUS45 KTFX 050119
RWRMT
MONTANA REGIONAL WEATHER ROUNDUP
NATIONAL WEATHER SERVICE GREAT FALLS MT
700 PM MDT FRI SEP 04 2015

NOTE: "FAIR" INDICATES FEW OR NO CLOUDS BELOW 12000 FEET WITH NO
SIGNIFICANT WEATHER AND/OR OBSTRUCTIONS TO VISIBILITY.

MTZ001>007-043-050200-
WEST OF THE DIVIDE

CITY           SKY/WX    TMP DP  RH WIND       PRES   REMARKS
KALISPELL      PTCLDY    59  40  49 NE15G24   29.92S
MISSOULA       MOSUNNY   60  42  51 E13       29.88F
BUTTE          CLOUDY    49  44  83 CALM      29.94F
MULLAN PASS    PTSUNNY   48  33  56 CALM      29.93R
DEER LODGE       N/A     52  46  82 NW3       29.99S
EUREKA           N/A     57  45  62 NW8         N/A
HAMILTON         N/A     59  45  58 N7        29.84F
LIBBY            N/A     64  39  39 N8        29.89S
RONAN            N/A     61  45  55 NW7       29.94F
$$

MTZ008-052>055-050200-
SOUTHWEST MONTANA

CITY           SKY/WX    TMP DP  RH WIND       PRES   REMARKS
BOZEMAN        MOCLDY    57  49  74 SW10      29.92F
DILLON         CLOUDY    55  42  61 NE14      29.90F
W YELLOWSTONE  MOCLDY    59  37  44 CALM      29.90S
THREE FORKS      N/A     58  58 100 N5        29.93F
TWIN BRIDGES     N/A     57  39  51 N17       29.90F
$$

MTZ009-010-012-014-046-048-049-054-050200-
EAST SLOPES AND CENTRAL MONTANA

CITY           SKY/WX    TMP DP  RH WIND       PRES   REMARKS
CUT BANK       CLOUDY    45  44  97 N12       30.06R FOG
GREAT FALLS    CLOUDY    50  48  93 N8        30.01R
MALMSTROM AFB  CLOUDY    50  48  95 NE12      30.01R
HELENA         CLOUDY    54  46  74 W8        29.96S
$$

MTZ011-013-016-021-045-047-050-051-050200-
NORTH CENTRAL MONTANA

CITY           SKY/WX    TMP DP  RH WIND       PRES   REMARKS
HAVRE          CLOUDY    54  50  86 E14       30.01F
LEWISTOWN      CLOUDY    56  46  69 N14G20    29.97F
N BAR RANCH    CLOUDY    55  45  67 N12       30.00F
CHINOOK          N/A     55  48  76 NE3       30.02S
FORT BENTON      N/A     54  48  82 NE5       30.02S
$$

MTZ017>020-022>027-061-062-050200-
NORTHEAST MONTANA

CITY           SKY/WX    TMP DP  RH WIND       PRES   REMARKS
GLASGOW        CLOUDY    67  49  52 N18G28    29.91R
JORDAN           N/A     67  50  54 N21       29.88R
SIDNEY         CLOUDY    73  57  56 N12         N/A
WOLF POINT     CLOUDY    71  51  49 NE14G20   29.90R
MALTA            N/A     56  47  71 N14       29.95R
PLENTYWOOD       N/A     64  48  55 N15       29.93R
POPLAR           N/A     70  50  49 N15       29.89R
$$

MTZ028>42-056>058-050200-
SOUTHCENTRAL AND SOUTHEAST MONTANA

CITY           SKY/WX    TMP DP  RH WIND       PRES   REMARKS
BAKER          CLEAR     73  60  63 NE13      29.86R
BILLINGS       MOCLDY    65  45  48 N17       29.92R
LIVINGSTON     CLOUDY    60  49  66 E10       29.92F
MILES CITY     CLEAR     71  57  61 NE14      29.85R
FORSYTH          N/A     72  50  46 W5        29.84S
LAUREL           N/A     67  45  45 NW15      29.89F
ROUNDUP          N/A     62  44  51 N16       29.86F
$$

REGIONAL REPORTS...DAKOTAS

CITY           SKY/WX    TMP DP  RH WIND       PRES   REMARKS
WILLISTON      PTCLDY    71  57  61 NE13      29.88R
MINOT          CLOUDY    66  57  72 N14       29.87R
DICKINSON      CLEAR     73  62  68 NE18      29.83R
BEACH            N/A     68  63  83 NE8       29.87S
CROSBY         CLOUDY    64  52  63 NE14      29.92R
BISMARCK       CLEAR     81  67  62 E5        29.79R
GRAND FORKS    MOCLDY    74  68  81 S5        29.82R
FARGO          CLOUDY    76  73  91 E6        29.82S
BUFFALO SD       N/A     79  63  57 N13       29.76R
RAPID CITY     MOCLDY    83  58  42 VRB6      29.79R
$$

REGIONAL REPORTS...WYOMING/IDAHO/WASHINGTON

CITY           SKY/WX    TMP DP  RH WIND       PRES   REMARKS
GILLETTE       LGT RAIN  74  49  41 S13G20    29.89R
SHERIDAN       MOCLDY    72  46  39 NW16      29.86R
BUFFALO WY     MOCLDY    73  48  41 N15G24    29.91R
CODY           PTCLDY    61  46  59 N16G22    29.90R
YELLOWSTONE LA   N/A     54  44  69 CALM      30.01F
IDAHO FALLS    MOCLDY    76  36  23 S8        29.74F
SALMON         PTSUNNY   48  46  93 E5        29.85S
BOISE          MOSUNNY   61  43  51 NW26G38   29.74R
SPOKANE        PTSUNNY   68  30  24 N12       29.83F
$$

REGIONAL REPORTS...ALBERTA

CITY           SKY/WX    TMP DP  RH WIND       PRES   REMARKS
EDMONTON       CLOUDY    52  39  62 SE2       30.17S
CALGARY        LGT RAIN  43  39  87 N14G22    30.15S
LETHBRIDGE     LGT RAIN  50  48  93 W12       30.06R
MEDICINE HAT   LGT RAIN  52  50  93 NE12      30.04F FOG
WATERTON GATE    N/A     43  41  93 NE6         N/A
CARDSTON         N/A     43  43 100 NW10G18     N/A
MILK RIVER       N/A     46  46 100 NW9         N/A
ONEFOUR          N/A     52  50  93 E6          N/A
$$

REGIONAL REPORTS...SASKATCHEWAN

CITY           SKY/WX    TMP DP  RH WIND       PRES   REMARKS
SWIFT CURRENT  CLOUDY    48  48 100 N9        30.08R
REGINA         MOCLDY    57  46  67 NW16G22   30.03R
SASKATOON      LGT RAIN  54  46  76 N8        30.13R
CYPRESS HILLS    N/A     45  43  93 NE6         N/A
VAL MARIE        N/A     52  46  82 NE17G23     N/A
ROCKGLEN         N/A     52  45  76 N21G29      N/A
ASSINIBOIA       N/A     52  39  62 E5          N/A
$$


USA.gov is the U.S. government's official web portal to all federal, state and local government web resources and services.